Starlink 30268

operational
NORAD ID: 57531 Int'l Des: 2023-115 Owner: SPXS Country: US Constellation: starlink
LEOCIRCULAR

About Starlink 30268

Description loading...

Live Position

Loading 3D Globe...

Upcoming Passes

Altitude History

Altitude vs Time

uPlot chart will show altitude changes over time

Two-Line Element Set

1 57531U 23115L 25260.30705463 -.00000286 00000-0 -60916-5 0 9991
2 57531 43.0039 226.8188 0001061 266.4629 93.6092 15.02533557116238
Epoch: Sep 17, 2025 • Age: 36 hours

Current Status

Altitude 569.8 km
Velocity 7.58 km/s
Sub-Earth Point -38.23°S, 164.5°E
Launch Date Aug 8, 2023
Age 2.1 years
Type internet

Technical Details

Classification Payload
Mass 730.00 kg
Dry Mass 700.00 kg
Total Mass 730.00 kg
Length 0.30 m
Diameter 4.10 m
Span 29.00 m
Shape Box + pan
Manufacturer SPXS
Bus Type Starlink V2M
Phase Status In Orbit
Owner/State SPXS/US

Large Constellations

Loading constellations...